Regional Weather Roundup
Issued by NWS

Home | Current Version | Previous Version | Text Only | Print | Product List | Glossary Off
Versions: 1 2 3 4 5 6 7 8 9 10 11 12 13 14 15 16 17 18 19 20 21 22 23 24 25 26 27 28 29 30 31 32 33 34 35 36 37 38 39 40 41 42 43 44 45 46 47 48 49 50

000
ASUS43 KLMK 251702
RWRKY
KENTUCKY REGIONAL WEATHER ROUNDUP
NATIONAL WEATHER SERVICE LOUISVILLE KY
1200 PM EST SUN JAN 25 2015

NOTE "FAIR" INDICATES FEW OR NO CLOUDS BELOW 12,000 FEET
WITH NO SIGNIFICANT WEATHER AND/OR OBSTRUCTIONS TO VISIBILITY.

KYZ001>023-026-027-061>063-070>075-251800-
WESTERN AND SOUTH CENTRAL KENTUCKY

CITY           SKY/WX    TMP DP  RH WIND       PRES   REMARKS
PADUCAH        RAIN      42  38  85 SW7       29.64F FOG
HENDERSON      CLOUDY    43  36  75 SE5       29.64F
OWENSBORO      LGT RAIN  42  38  86 S8        29.66F
HOPKINSVILLE   CLOUDY    48  35  59 S9        29.66F
BOWLING GREEN  CLOUDY    48  34  58 S13       29.70F
GLASGOW        NOT AVBL
$$

KYZ024-025-028>034-038-045-046-053-251800-
NORTH CENTRAL KENTUCKY

CITY           SKY/WX    TMP DP  RH WIND       PRES   REMARKS
LOUISVILLE/SDF LGT RAIN  44  34  67 S5        29.70F
LOUISVILLE/LOU LGT RAIN  43  32  65 S5        29.70F
FORT KNOX      CLOUDY    42  33  72 S6        29.68F
$$

KYZ035>037-039>044-047>052-055>060-089>105-251800-
NORTHEAST KENTUCKY

CITY           SKY/WX    TMP DP  RH WIND       PRES   REMARKS
LEXINGTON      CLOUDY    38  31  76 S13       29.72F WCI  30
COVINGTON      CLOUDY    41  32  70 S8        29.71F
FRANKFORT      CLOUDY    40  32  73 S8        29.69F WCI  34
$$

KYZ054-064>069-076>088-106>120-251800-
SOUTHEAST KENTUCKY

CITY           SKY/WX    TMP DP  RH WIND       PRES   REMARKS
JACKSON        CLOUDY    43  33  68 VRB5      29.77F
LONDON         CLOUDY    47  29  49 S12       29.75F
SOMERSET       NOT AVBL
MIDDLESBORO    NOT AVBL
MONTICELLO     PTSUNNY   51  35  54 S8        29.76F
$$




USA.gov is the U.S. government's official web portal to all federal, state and local government web resources and services.